This is the latest recevied weather packets stored in our database for station/object K0QED. If no packets are shown the sender has not sent any weather packets the latest 10 day(s).
| Time | Temp. | Humidity | Pressure | Rain* | Wind** | Luminosity | Snow |
|---|---|---|---|---|---|---|---|
| 1777514256 | 2.78° C | 96% | 1021.6 hPa | 0 mm | - | 0 W/m² | - |
| 1777513952 | 2.78° C | 96% | 1021.6 hPa | 0 mm | - | 0 W/m² | - |
| 1777513650 | 2.78° C | 96% | 1021.7 hPa | 0 mm | - | 0 W/m² | - |
| 1777513346 | 2.78° C | 96% | 1021.7 hPa | 0 mm | - | 0 W/m² | - |
| 1777513041 | 2.78° C | 96% | 1021.5 hPa | 0 mm | - | 0 W/m² | - |
| 1777512739 | 2.78° C | 96% | 1021.4 hPa | 0 mm | - | 3 W/m² | - |
| 1777512435 | 2.78° C | 95% | 1021.5 hPa | 0 mm | - | 2 W/m² | - |
| 1777512132 | 2.78° C | 95% | 1021.2 hPa | 0 mm | - | 4 W/m² | - |
| 1777511830 | 2.78° C | 95% | 1021.5 hPa | 0 mm | - | 10 W/m² | - |
| 1777511527 | 2.78° C | 95% | 1021.2 hPa | 0 mm | - | 16 W/m² | - |
| 1777511224 | 2.78° C | 95% | 1021 hPa | 0 mm | - | 23 W/m² | - |
| 1777510920 | 2.78° C | 94% | 1021.1 hPa | 1.27 mm | - | 47 W/m² | - |
| 1777510616 | 2.78° C | 94% | 1021.2 hPa | 1.27 mm | - | 55 W/m² | - |
| 1777510313 | 2.78° C | 93% | 1021.2 hPa | 1.78 mm | - | 52 W/m² | - |
| 1777510009 | 2.78° C | 93% | 1021.4 hPa | 4.83 mm | - | 65 W/m² | - |
| 1777509705 | 2.78° C | 92% | 1021.4 hPa | 4.32 mm | - | 62 W/m² | - |
| 1777509401 | 3.33° C | 91% | 1021.4 hPa | 4.32 mm | - | 22 W/m² | - |
| 1777509099 | 3.89° C | 91% | 1021.4 hPa | 4.83 mm | - | 8 W/m² | - |
| 1777508796 | 3.89° C | 90% | 1021.1 hPa | 1.78 mm | - | 7 W/m² | - |
| 1777508493 | 4.44° C | 88% | 1021.4 hPa | 0 mm | - | 10 W/m² | - |
| 1777508190 | 4.44° C | 86% | 1021 hPa | 0 mm | - | 11 W/m² | - |
| 1777507887 | 5° C | 85% | 1020.9 hPa | 0 mm | - | 11 W/m² | - |
| 1777507584 | 5° C | 84% | 1020.7 hPa | 0 mm | - | 12 W/m² | - |
| 1777507281 | 5° C | 85% | 1020.7 hPa | 0 mm | - | 18 W/m² | - |
| 1777506978 | 4.44° C | 85% | 1020.7 hPa | 0 mm | - | 21 W/m² | - |
* Rain latest hour (hover to see other rain measurements)
** Current wind speed in m/s (hover to see current wind gust speed)